When you browse on this site, cookies collect data to enhance your experience and personalize the content and advertising you see.
Visit our Privacy Policy to learn more. By continuing to use the site, you agree to this use of cookies and data.
  • In Czech Republic
  • List of Countries
  • For 7 days
  • Water Temperature
  • Weather Map
  • Weather Widgets
  • user-avatar
    Login

    Hourly Weather Sinyavino

    Today, 10 April, Friday

    Time Temperature Precipitation Wind Pressure Humidity
    00:00 +8°C° 0 mm 5 mps 741 mmHg 72%
    01:00 +8°C° 0 mm 5 mps 741 mmHg 72%
    02:00 +8°C° 0 mm 5 mps 740 mmHg 72%
    03:00 +8°C° 1.1 mm 5 mps 740 mmHg 79%
    04:00 +7°C° 1.1 mm 5 mps 740 mmHg 86%
    05:00 +7°C° 1.1 mm 4 mps 739 mmHg 93%
    06:00 +7°C° 0.7 mm 4 mps 740 mmHg 90%
    07:00 +7°C° 0.7 mm 4 mps 740 mmHg 88%
    08:00 +7°C° 0.7 mm 4 mps 740 mmHg 85%
    09:00 +7°C° 0.1 mm 5 mps 740 mmHg 80%
    10:00 +7°C° 0.1 mm 5 mps 741 mmHg 75%
    11:00 +7°C° 0.1 mm 5 mps 741 mmHg 69%
    12:00 +7°C° 0 mm 6 mps 741 mmHg 64%
    13:00 +8°C° 0 mm 6 mps 742 mmHg 58%
    14:00 +8°C° 0 mm 6 mps 742 mmHg 53%
    15:00 +8°C° 0 mm 6 mps 742 mmHg 52%
    16:00 +7°C° 0 mm 5 mps 742 mmHg 52%
    17:00 +7°C° 0 mm 5 mps 742 mmHg 52%
    18:00 +6°C° 0 mm 5 mps 743 mmHg 56%
    19:00 +5°C° 0 mm 4 mps 743 mmHg 60%
    20:00 +4°C° 0 mm 3 mps 744 mmHg 64%
    21:00 +4°C° 0 mm 3 mps 744 mmHg 67%
    22:00 +3°C° 0 mm 3 mps 744 mmHg 70%
    23:00 +3°C° 0 mm 4 mps 744 mmHg 73%

    Tomorrow, 11 April, Saturday

    Time Temperature Precipitation Wind Pressure Humidity
    00:00 +2°C° 0 mm 3 mps 744 mmHg 75%
    01:00 +2°C° 0 mm 3 mps 744 mmHg 76%
    02:00 +1°C° 0 mm 3 mps 744 mmHg 77%
    03:00 +1°C° 0 mm 3 mps 744 mmHg 78%
    04:00 0°C° 0 mm 3 mps 744 mmHg 78%
    05:00 +1°C° 0 mm 2 mps 744 mmHg 78%
    06:00 +1°C° 0 mm 3 mps 744 mmHg 73%
    07:00 +2°C° 0 mm 3 mps 744 mmHg 68%
    08:00 +3°C° 0 mm 4 mps 744 mmHg 63%
    09:00 +4°C° 0.2 mm 4 mps 745 mmHg 63%
    10:00 +3°C° 0.2 mm 5 mps 745 mmHg 63%
    11:00 +4°C° 0.2 mm 6 mps 745 mmHg 62%
    12:00 +4°C° 0.2 mm 6 mps 745 mmHg 57%
    13:00 +4°C° 0.2 mm 7 mps 745 mmHg 52%
    14:00 +4°C° 0.2 mm 7 mps 745 mmHg 47%
    15:00 +4°C° 0 mm 7 mps 745 mmHg 45%
    16:00 +4°C° 0 mm 7 mps 745 mmHg 43%
    17:00 +3°C° 0 mm 7 mps 745 mmHg 41%
    18:00 +2°C° 0 mm 6 mps 746 mmHg 47%
    19:00 +1°C° 0 mm 5 mps 746 mmHg 53%
    20:00 0°C° 0 mm 4 mps 747 mmHg 59%
    21:00 0°C° 0 mm 5 mps 747 mmHg 62%
    22:00 0°C° 0 mm 5 mps 748 mmHg 66%
    23:00 -2°C° 0 mm 6 mps 748 mmHg 70%

    Day after tomorrow, 12 April, Sunday

    Time Temperature Precipitation Wind Pressure Humidity
    00:00 -1°C° 0 mm 5 mps 748 mmHg 68%
    01:00 -2°C° 0 mm 5 mps 749 mmHg 66%
    02:00 -2°C° 0 mm 5 mps 749 mmHg 64%
    03:00 -4°C° 0 mm 5 mps 749 mmHg 66%
    04:00 -4°C° 0 mm 5 mps 749 mmHg 69%
    05:00 -4°C° 0 mm 5 mps 750 mmHg 72%
    06:00 -2°C° 0 mm 5 mps 750 mmHg 64%
    07:00 -1°C° 0 mm 5 mps 750 mmHg 57%
    08:00 +1°C° 0 mm 6 mps 750 mmHg 50%
    09:00 +1°C° 0 mm 6 mps 750 mmHg 47%
    10:00 +2°C° 0 mm 6 mps 750 mmHg 44%
    11:00 +3°C° 0 mm 5 mps 750 mmHg 41%
    12:00 +3°C° 0 mm 5 mps 750 mmHg 41%
    13:00 +5°C° 0 mm 5 mps 750 mmHg 41%
    14:00 +5°C° 0 mm 5 mps 749 mmHg 40%
    15:00 +5°C° 0 mm 5 mps 749 mmHg 42%
    16:00 +5°C° 0 mm 4 mps 749 mmHg 43%
    17:00 +5°C° 0 mm 4 mps 749 mmHg 44%
    18:00 +4°C° 0 mm 3 mps 749 mmHg 49%
    19:00 +4°C° 0 mm 2 mps 749 mmHg 54%
    20:00 +4°C° 0 mm 1 mps 749 mmHg 59%
    21:00 +4°C° 0 mm 1 mps 749 mmHg 62%
    22:00 +2°C° 0 mm 2 mps 749 mmHg 65%
    23:00 +2°C° 0 mm 2 mps 748 mmHg 69%

    13 April, Monday

    Time Temperature Precipitation Wind Pressure Humidity
    00:00 +2°C° 0 mm 2 mps 748 mmHg 71%
    01:00 +1°C° 0 mm 3 mps 748 mmHg 74%
    02:00 +1°C° 0 mm 3 mps 747 mmHg 76%
    03:00 0°C° 0 mm 4 mps 747 mmHg 75%
    04:00 0°C° 0 mm 4 mps 747 mmHg 74%
    05:00 +1°C° 0 mm 5 mps 746 mmHg 72%
    06:00 +2°C° 0 mm 6 mps 746 mmHg 65%
    07:00 +3°C° 0 mm 6 mps 745 mmHg 57%
    08:00 +4°C° 0 mm 7 mps 745 mmHg 49%
    09:00 +5°C° 0 mm 8 mps 744 mmHg 48%
    10:00 +7°C° 0 mm 8 mps 744 mmHg 46%
    11:00 +9°C° 0 mm 8 mps 743 mmHg 44%
    12:00 +10°C° 0 mm 8 mps 743 mmHg 45%
    13:00 +11°C° 0 mm 8 mps 742 mmHg 45%
    14:00 +12°C° 0 mm 9 mps 742 mmHg 46%
    15:00 +12°C° 0 mm 8 mps 741 mmHg 49%
    16:00 +12°C° 0 mm 8 mps 741 mmHg 51%
    17:00 +11°C° 0 mm 7 mps 741 mmHg 54%
    18:00 +11°C° 0 mm 7 mps 740 mmHg 56%
    19:00 +10°C° 0 mm 7 mps 740 mmHg 59%
    20:00 +9°C° 0 mm 7 mps 740 mmHg 61%
    21:00 +9°C° 0 mm 7 mps 740 mmHg 62%
    22:00 +7°C° 0 mm 8 mps 739 mmHg 63%
    23:00 +7°C° 0 mm 8 mps 739 mmHg 64%

    14 April, Tuesday

    Time Temperature Precipitation Wind Pressure Humidity
    00:00 +7°C° 0 mm 8 mps 738 mmHg 65%
    01:00 +6°C° 0 mm 8 mps 738 mmHg 67%
    02:00 +6°C° 0 mm 8 mps 737 mmHg 69%
    03:00 +6°C° 0 mm 8 mps 737 mmHg 70%
    04:00 +6°C° 0 mm 8 mps 737 mmHg 71%
    05:00 +5°C° 0 mm 8 mps 737 mmHg 72%
    06:00 +6°C° 0 mm 9 mps 737 mmHg 68%
    07:00 +7°C° 0 mm 9 mps 736 mmHg 65%
    08:00 +7°C° 0 mm 10 mps 736 mmHg 61%
    09:00 +8°C° 0 mm 10 mps 736 mmHg 56%
    10:00 +9°C° 0 mm 10 mps 736 mmHg 52%
    11:00 +11°C° 0 mm 11 mps 736 mmHg 47%
    12:00 +11°C° 0 mm 11 mps 736 mmHg 46%
    13:00 +12°C° 0 mm 11 mps 736 mmHg 44%
    14:00 +12°C° 0 mm 11 mps 736 mmHg 42%
    15:00 +12°C° 0 mm 10 mps 736 mmHg 46%
    16:00 +11°C° 0 mm 8 mps 735 mmHg 49%
    17:00 +11°C° 0 mm 7 mps 735 mmHg 52%
    18:00 +10°C° 0 mm 7 mps 735 mmHg 53%
    19:00 +10°C° 0 mm 8 mps 735 mmHg 54%
    20:00 +9°C° 0 mm 8 mps 735 mmHg 55%
    21:00 +9°C° 0.8 mm 8 mps 735 mmHg 65%
    22:00 +7°C° 0.8 mm 8 mps 735 mmHg 74%
    23:00 +6°C° 0.8 mm 8 mps 735 mmHg 83%

    15 April, Wednesday

    Time Temperature Precipitation Wind Pressure Humidity
    00:00 +6°C° 0.4 mm 7 mps 735 mmHg 85%
    01:00 +5°C° 0.4 mm 6 mps 734 mmHg 86%
    02:00 +5°C° 0.4 mm 6 mps 734 mmHg 88%
    03:00 +6°C° 0.4 mm 5 mps 734 mmHg 85%
    04:00 +5°C° 0.4 mm 5 mps 733 mmHg 83%
    05:00 +5°C° 0.4 mm 5 mps 733 mmHg 80%
    06:00 +5°C° 1.1 mm 5 mps 732 mmHg 79%
    07:00 +5°C° 1.1 mm 5 mps 731 mmHg 79%
    08:00 +6°C° 1.1 mm 5 mps 731 mmHg 78%
    09:00 +5°C° 1 mm 6 mps 730 mmHg 82%
    10:00 +5°C° 1 mm 6 mps 730 mmHg 86%
    11:00 +5°C° 1 mm 7 mps 729 mmHg 90%
    12:00 +5°C° 0.9 mm 7 mps 729 mmHg 88%
    13:00 +5°C° 0.9 mm 8 mps 729 mmHg 87%
    14:00 +5°C° 0.9 mm 8 mps 729 mmHg 86%
    15:00 +4°C° 0.1 mm 8 mps 729 mmHg 81%
    16:00 +2°C° 0.1 mm 8 mps 729 mmHg 77%
    17:00 +1°C° 0.1 mm 8 mps 729 mmHg 72%
    18:00 0°C° 0 mm 7 mps 730 mmHg 74%
    19:00 0°C° 0 mm 7 mps 730 mmHg 77%
    20:00 -1°C° 0 mm 7 mps 731 mmHg 79%
    21:00 -1°C° 0 mm 7 mps 731 mmHg 82%
    22:00 -2°C° 0 mm 7 mps 732 mmHg 85%
    23:00 -2°C° 0 mm 7 mps 732 mmHg 87%
    Show more